星链-2083 (STARLINK-2083 )

导读 | 豆包AI

STARLINK-2083是美国SpaceX公司星链星座的一员,于2021年2月16日发射,属于星链第一代V1.5批次卫星。作为低轨宽带卫星,它运行在近地轨道,配备氪离子推进器和相控阵通信天线,为全球偏远、网络覆盖不足区域提供高速互联网接入服务,助力星链实现全球宽带互联的布局,是星链大规模星座组网过程中的重要组成部分。

基本信息
目录编号:
47676
目录名称:
STARLINK-2083
国际标识:
2021-012BJ
轨道中心:
EARTH
卫星名称:
星链-2083
卫星全名:
星链-2083 (STARLINK-2083 )
卫星状态:
在轨 (已飞行1924 天)
发射日期:
2021-02-16 UTC
国别 :
美国 (US)
星等 :
--
轨道信息
数据来源 国际轨道数据
星历时间: 2026-05-25T13:17:49+0800
3小时前
查看轨道信息
半长轴: 6723.802km
偏心率: 0.0005332
轨道倾角: 53.044°
近地点辐角 321.777°
升交点赤经 265.297°
平近点角 38.286°
近地点: 342.079km
远地点: 349.251km
周期: 91.450分钟
每日圈数: 15.746368
详细信息
固有亮度:
5
最大亮度:
2.5
卫星平台:
Starlink V1.0
覆盖范围:
全球
运营商:
太空探索技术公司
运营商所在国:
美国
制造商(研发单位):
太空探索技术公司
制造商所在国:
美国
使用方式:
暂无
卫星简介
星链(Starlink)计划是由太空探索技术公司(SpaceX)提出的一个巨型低轨卫星互联网星座项目,计划在2019年至2024年间在太空搭建由约1.2万颗卫星组成的“星链”网络,其中1584颗将部署在地球上空550千米处的近地轨道,并从2020年开始工作。该卫星仍在工作。
2D轨道图
3D轨道图
轨道高度分析图
轨道倾角分析图
轨道综合分析图
查看轨道综合分析图